Details From LFSB - Basle-mulhouse
To LFSM - Montbeliard Courcelles
Flight Number -
Tags Routegen Generated
Created
Modified
Stats Distance 36 nm / 67 km
Max Altitude 3,600 ft / 1,097 m
Waypoints 5
Social Downloads 20
Likes 0
Share

Download

Looking for another format? Having issues loading an existing format? Contact us
Advertisement - Login to hide

Notes

Departing runway 15 LFSB. Arriving runway 7 LFSM. Advanced Generation Settings: Turn accuracy: 20 Altitude: 3600ft Smoothed angles: True Runway changes allowed: True Calculation order: Arrival --> Departure --> Intermediates Multipass intermediates: True

Route

LFSB +47.52_+007.58 +47.51_+007.24 +47.50_+006.91 LFSM

ID Type Via Altitude (ft/m) Position (lat/lon) Dist (leg/tot) Name
O LFSB APT - 3,600 / 1,097 47.58595 / 7.53196 - / 0 nm
+47.52_+007.58 LATLON - 3,600 / 1,097 47.52042 / 7.57746 4 / 4 nm
+47.51_+007.24 LATLON - 3,600 / 1,097 47.51107 / 7.24217 13 / 17 nm
+47.50_+006.91 LATLON - 1,160 / 354 47.50171 / 6.90689 13 / 31 nm
O LFSM APT - 0 / 0 47.48841 / 6.80161 4 / 35 nm

Altitude Profile

Advertisement - Login to hide

LFSB

Details ICAO LFSB (BSL)
Name EuroAirport Basel-Mulhouse-Freiburg
Region France
Timezone Europe/Paris (UTC+2.0)
Stats Elevation 884 ft / 269 m (AMSL)
Location 47.595800° 7.524810°
Runways 2
Magnetic Variation 2.561° E

METAR

LFSB 241000Z 13007KT 100V180 CAVOK 11/04 Q1026 NOSIG

Decode

TAF

TAF LFSB 240500Z 2406/2506 VRB03KT 8000 NSC PROB40 TEMPO 2406/2407 4000 BCFG BECMG 2406/2408 CAVOK BECMG 2408/2410 11005KT

Decode

Departure Runways

ID Width Length Bearing (true/mag) Surface Threshold Overrun Markings Lighting
08 197 ft / 60 m 5,977 ft / 1,822 m 76.98° / 74.42° CONCRETE 0 ft / 0 m 0 ft / 0 m APP CENTERLINE EDGE THRESHOLD
15 197 ft / 60 m 12,807 ft / 3,904 m 154.84° / 152.28° CONCRETE 0 ft / 0 m 302 ft / 92 m PREC-APP CENTERLINE EDGE THRESHOLD CALVERT-ILS REIL-OMNI
26 197 ft / 60 m 5,977 ft / 1,822 m 257.00° / 254.44° CONCRETE 728 ft / 222 m 0 ft / 0 m APP CENTERLINE EDGE THRESHOLD
33 197 ft / 60 m 12,807 ft / 3,904 m 334.86° / 332.30° CONCRETE 3,674 ft / 1,120 m 0 ft / 0 m PREC-APP CENTERLINE EDGE THRESHOLD REIL-OMNI

LFSM

Details ICAO LFSM
Name Monbeliard Courcelles
Region France
Timezone Europe/Paris (UTC+2.0)
Stats Elevation 1,041 ft / 317 m (AMSL)
Location 47.486800° 6.791270°
Runways 2
Magnetic Variation 2.373° E

METAR

LFSM 241000Z AUTO 04004KT 010V090 CAVOK 10/04 Q1025

Decode

TAF

Not found

Destination Runways

ID Width Length Bearing (true/mag) Surface Threshold Overrun Markings Lighting
08 66 ft / 20 m 5,583 ft / 1,702 m 79.49° / 77.12° ASPHALT 1,312 ft / 400 m 0 ft / 0 m APP CENTERLINE EDGE THRESHOLD MALSF
08R 164 ft / 50 m 2,824 ft / 861 m 79.50° / 77.12° GRASS 0 ft / 0 m 0 ft / 0 m NONE
26 66 ft / 20 m 5,583 ft / 1,702 m 259.51° / 257.14° ASPHALT 1,312 ft / 400 m 0 ft / 0 m APP CENTERLINE EDGE THRESHOLD MALSF
26L 164 ft / 50 m 2,824 ft / 861 m 259.50° / 257.13° GRASS 0 ft / 0 m 0 ft / 0 m NONE

Popular Alternatives